Location: Dumpton Point
(51.3500°N, 1.4433°E)
Time: 23:12:28
(UTC+00:00)

Vanguard 1 - Pass Details

Date: 29 September 2022
Orbit: 650 x 3831 km, 34.2° (Epoch: 03 December)

Event Time Altitude Azimuth Distance (km) Brightness Sun altitude
Rises 12:20:44 0° 195° (SSW) 7,290 15.5 35.6°
Reaches altitude 10° 12:30:16 10° 173° (S) 5,512 15.0 35.3°
Maximum altitude 12:35:39 13° 152° (SSE) 4,757 14.3 35.0°
Drops below altitude 10° 12:40:11 10° 131° (SE) 4,478 13.8 34.8°
Sets 12:45:52 0° 105° (ESE) 4,794 13.6 34.6°
